Location: Albany
(35.0170°S, 117.8920°E)
Time: 03:43:53
(UTC+08:00)

Vanguard 1 - Pass Details

Date: 28 January 2021
Orbit: 649 x 3833 km, 34.2° (Epoch: 26 February)

Event Time Altitude Azimuth Distance (km) Brightness Sun altitude
Rises 03:02:12 0° 269° (W) 3,492 - -24.5°
Reaches altitude 10° 03:05:00 10° 270° (W) 2,320 - -24.1°
Exits shadow 03:09:35 73° 293° (WNW) 699 9.0 -23.4°
Maximum altitude 03:09:58 82° 356° (N) 672 9.0 -23.4°
Drops below altitude 10° 03:14:27 10° 84° (E) 2,099 12.2 -22.7°
Sets 03:16:52 0° 84° (E) 3,125 13.2 -22.4°
